Location: Gwatt
(46.7204°N, 7.6223°E)
Time: 02:07:40
(UTC+00:00)

S-56A Canister/Altair - Pass Details

Date: 27 June 2021
Orbit: 631 x 2501 km, 38.9° (Epoch: 02 August)

Event Time Altitude Azimuth Distance (km) Brightness Sun altitude
Exits shadow 00:49:10 14° 142° (SE) 1,973 9.3 -17.9°
Drops below altitude 10° 00:50:42 10° 123° (ESE) 2,142 9.7 -17.8°
Sets 00:53:51 0° 98° (E) 2,949 10.7 -17.6°
